Stations météo

réclame
Mon MeteoGroup
Mannheim, Allemagne (10729): Température de l'air & dewpoint: 11.07.2018 13:00:00 - 17.07.2018 13:00:00 (CEST)Mannheim, Allemagne (10729): Température de l'air 5cm & Température de l'air -5cm: 11.07.2018 13:00:00 - 17.07.2018 13:00:00 (CEST)Mannheim, Allemagne (10729): Température de l'air -20cm & Température de l'air -100cm: 11.07.2018 13:00:00 - 17.07.2018 13:00:00 (CEST)Mannheim, Allemagne (10729): Vitesse du vent & gusts: 11.07.2018 13:00:00 - 17.07.2018 13:00:00 (CEST)Mannheim, Allemagne (10729): Direction du vent: 11.07.2018 13:00:00 - 17.07.2018 13:00:00 (CEST)Mannheim, Allemagne (10729): reduced air pressure: 11.07.2018 13:00:00 - 17.07.2018 13:00:00 (CEST)Mannheim, Allemagne (10729): visibility: 11.07.2018 13:00:00 - 17.07.2018 13:00:00 (CEST)Mannheim, Allemagne (10729): Ensoleillement: 11.07.2018 13:00:00 - 17.07.2018 13:00:00 (CEST)Mannheim, Allemagne (10729): Quantités de précipitations: 11.07.2018 13:00:00 - 17.07.2018 13:00:00 (CEST)
Date & Time tt [°C] td [°C] tt 5cm [°C] tt -5cm [°C] tt -20cm [°C] tt -100cm [°C] ff [km/h] ff [knt] fx [km/h] fx [knt] dd ppp [hPa] vv [km] sd [min] rr [mm]
17.07.2018 13:00:00 29,4 12,4 38,0 31,7 24,3 21,3 6 4 16 9 WSW 1013,8 18 60 0,0
17.07.2018 12:00:00 27,4 13,0 35,9 29,6 24,1 21,3 4 2 17 9 ESE 1014,3 24 60 0,0
17.07.2018 11:00:00 25,6 13,7 31,5 26,7 23,9 21,3 7 4 19 10 S 1014,3 31 60 0,0
17.07.2018 10:00:00 23,5 14,2 27,8 24,3 23,9 21,3 9 5 18 10 SSE 1014,4 21 60 0,0
17.07.2018 09:00:00 21,5 14,0 24,7 22,3 24,0 21,3 9 5 18 10 S 1014,5 23 60 0,0
17.07.2018 08:00:00 19,0 14,1 20,5 20,9 24,2 21,3 6 3 10 6 SSE 1014,4 20 59 0,0
17.07.2018 07:00:00 17,0 13,9 16,8 20,1 24,4 21,3 5 3 8 4 S 1014,1 20 44 0,0
17.07.2018 06:00:00 14,5 13,5 11,2 20,4 24,7 21,3 4 2 6 4 SSE 1013,8 16 0 0,0
17.07.2018 05:00:00 14,6 13,3 11,4 20,9 24,9 21,3 2 1 4 2 SSW 1013,5 17 0 0,0
17.07.2018 04:00:00 15,6 13,8 12,6 21,4 25,2 21,3 3 1 4 2 SSE 1013,4 17 0 0,0
17.07.2018 03:00:00 15,4 12,6 12,7 22,0 25,4 21,3 4 2 8 5 S 1013,5 28 0 0,0
17.07.2018 02:00:00 17,1 12,9 13,9 22,6 25,7 21,2 3 2 8 5 ESE 1013,4 31 0 0,0
17.07.2018 01:00:00 16,8 13,5 14,1 23,4 25,9 21,2 3 1 5 3 NNW 1013,0 16 0 0,0
17.07.2018 00:00:00 17,6 13,7 14,7 24,3 26,2 21,2 3 1 6 3 W 1012,8 32 0 0,0
16.07.2018 23:00:00 20,5 13,0 16,2 25,5 26,3 21,2 4 2 12 6 E 1012,5 42 0 0,0
16.07.2018 22:00:00 22,5 12,5 20,2 27,0 26,4 21,2 6 3 18 10 SSE 1012,0 48 6 0,0
16.07.2018 21:00:00 26,0 11,0 25,6 28,9 26,5 21,2 9 5 22 12 E 1011,1 60 60 0,0
16.07.2018 20:00:00 27,9 10,7 29,6 30,2 26,4 21,2 16 9 26 14 N 1010,5 47 50 0,0
16.07.2018 19:00:00 28,2 9,4 29,1 31,9 26,3 21,2 5 3 16 9 ENE 1010,4 66 31 0,0
16.07.2018 18:00:00 28,1 9,7 30,4 33,3 26,0 21,2 8 4 17 9 NNE 1010,4 68 47 0,0
16.07.2018 17:00:00 28,5 9,7 34,3 34,6 25,7 21,2 12 7 18 10 NE 1010,7 33 60 0,0
16.07.2018 16:00:00 28,8 9,5 37,0 34,2 25,3 21,2 6 3 19 10 NW 1011,3 21 58 0,0
16.07.2018 15:00:00 27,6 11,4 36,6 33,3 24,9 21,2 7 4 21 11 SE 1011,8 54 50 0,0
16.07.2018 14:00:00 27,2 11,9 36,1 32,0 24,5 21,2 5 3 17 9 NE 1012,6 26 60 0,0
16.07.2018 13:00:00 26,5 12,1 33,0 29,9 24,3 21,2 7 4 20 11 S 1013,1 36 60 0,0
16.07.2018 12:00:00 24,5 13,5 30,3 27,8 24,1 21,2 9 5 17 9 S 1013,8 26 60 0,0
16.07.2018 11:00:00 23,0 15,5 27,8 25,8 24,0 21,2 9 5 16 9 ESE 1014,3 22 60 0,0
16.07.2018 10:00:00 21,8 16,4 24,5 24,2 24,0 21,2 7 4 14 8 SSE 1014,4 26 60 0,0
16.07.2018 09:00:00 20,9 15,5 22,3 22,5 24,1 21,2 6 3 12 7 SE 1014,3 22 49 0,0
16.07.2018 08:00:00 19,2 15,2 19,4 21,6 24,3 21,1 7 4 13 7 S 1014,4 21 57 0,0
16.07.2018 07:00:00 17,5 15,2 16,5 21,2 24,5 21,1 3 2 7 4 NE 1014,3 16 0 0,0
16.07.2018 06:00:00 17,3 15,3 15,9 21,5 24,7 21,1 5 3 11 6 SE 1014,6 16 0 0,0
16.07.2018 05:00:00 17,2 15,1 16,4 21,9 24,9 21,1 6 3 12 7 S 1014,8 20 0 0,0
16.07.2018 04:00:00 17,5 16,3 17,1 22,2 25,1 21,1 5 3 8 4 S 1015,3 13 0 0,0
16.07.2018 03:00:00 17,1 15,9 16,6 22,6 25,3 21,1 3 1 9 5 S 1015,1 12 0 0,0
16.07.2018 02:00:00 17,5 15,8 17,1 22,9 25,5 21,1 3 1 7 4 ENE 1015,4 19 0 1,4
16.07.2018 01:00:00 17,8 15,7 17,2 23,3 25,7 21,1 4 2 9 5 E 1015,1 26 0 0,0
16.07.2018 00:00:00 17,7 15,7 17,0 23,7 26,0 21,1 5 3 12 6 NE 1015,2 24 0 0,0
15.07.2018 23:00:00 18,3 15,7 17,3 24,3 26,2 21,1 4 2 16 9 NE 1014,7 31 0 0,0
15.07.2018 22:00:00 18,2 16,2 17,5 25,3 26,4 21,1 8 4 14 8 SW 1013,7 21 0 0,0
15.07.2018 21:00:00 18,6 15,1 17,7 26,5 26,6 21,1 3 2 26 14 WSW 1014,3 36 0 2,3
15.07.2018 20:00:00 22,1 12,9 22,4 28,1 26,7 21,1 10 5 23 13 E 1015,4 55 0 0,0
15.07.2018 19:00:00 23,4 12,8 24,1 29,3 26,7 21,1 16 9 36 19 W 1015,5 41 0 0,0
15.07.2018 18:00:00 24,9 13,0 26,9 31,1 26,6 21,1 16 9 33 18 SSE 1013,9 41 0 0,0
15.07.2018 17:00:00 27,2 12,6 30,5 32,4 26,4 21,1 16 9 28 15 SE 1013,4 42 0 0,0
15.07.2018 16:00:00 29,3 10,1 32,7 33,7 26,1 21,1 13 7 23 13 NNW 1012,9 39 16 0,0
15.07.2018 15:00:00 29,4 10,5 35,1 34,3 25,7 21,1 9 5 22 12 NNE 1013,3 36 20 0,0
15.07.2018 14:00:00 29,4 10,5 38,3 34,8 25,3 21,1 13 7 41 22 NNE 1013,9 30 53 0,0
15.07.2018 13:00:00 28,6 11,9 37,6 33,2 24,9 21,0 11 6 27 14 N 1014,6 24 60 0,0
15.07.2018 12:00:00 27,6 13,0 35,8 31,0 24,6 21,0 10 5 22 12 W 1015,4 21 60 0,0
15.07.2018 11:00:00 25,5 12,5 31,9 28,6 24,5 21,0 6 3 12 6 WSW 1015,8 24 60 0,0
15.07.2018 10:00:00 24,3 12,5 28,3 26,0 24,5 21,0 4 2 10 5 NNE 1016,0 27 60 0,0
15.07.2018 09:00:00 21,9 13,7 24,8 23,6 24,6 21,0 5 3 10 6 NE 1016,1 22 42 0,0
15.07.2018 08:00:00 19,1 13,4 19,7 22,9 24,8 21,0 4 2 11 6 NNW 1016,0 23 36 0,0
15.07.2018 07:00:00 17,8 13,2 18,5 22,1 25,0 21,0 7 4 11 6 NNW 1015,8 21 39 0,0
15.07.2018 06:00:00 16,8 13,0 15,6 22,3 25,2 21,0 8 4 15 8 NNW 1015,9 20 0 0,0
15.07.2018 05:00:00 18,1 13,1 16,9 22,7 25,4 21,0 12 6 18 10 N 1016,0 24 0 0,0
15.07.2018 04:00:00 18,1 12,7 15,8 23,2 25,6 21,0 6 4 11 6 NNW 1016,1 28 0 0,0
15.07.2018 03:00:00 18,8 12,2 16,2 23,7 25,9 21,0 6 4 12 6 NNW 1016,2 32 0 0,0
15.07.2018 02:00:00 19,6 11,5 17,1 24,4 26,1 21,0 7 4 11 6 NNW 1016,4 30 0 0,0
15.07.2018 01:00:00 19,7 11,4 17,2 25,3 26,3 21,0 5 3 13 7 ENE 1016,6 29 0 0,0
15.07.2018 00:00:00 22,5 10,9 20,2 26,2 26,5 21,0 7 4 15 8 N 1016,3 38 0 0,0
14.07.2018 23:00:00 23,7 10,9 21,5 27,3 26,7 21,0 9 5 18 10 NNW 1016,0 43 0 0,0
14.07.2018 22:00:00 26,1 10,2 23,1 29,0 26,7 21,0 7 4 19 10 N 1015,6 48 0 0,0
14.07.2018 21:00:00 28,2 9,6 27,8 30,7 26,7 21,0 11 6 19 10 N 1015,1 55 58 0,0
14.07.2018 20:00:00 29,1 9,1 30,3 32,2 26,6 21,0 11 6 20 11 N 1015,1 53 55 0,0
14.07.2018 19:00:00 29,9 8,5 33,3 33,8 26,4 21,0 12 7 22 12 NW 1015,2 41 58 0,0
14.07.2018 18:00:00 30,1 9,6 36,7 34,5 26,1 21,0 6 4 16 9 N 1015,5 30 49 0,0
14.07.2018 17:00:00 28,9 10,1 32,5 35,2 25,8 21,0 9 5 25 14 ENE 1016,0 48 35 0,0
14.07.2018 16:00:00 29,5 10,0 36,9 35,6 25,3 21,0 13 7 21 12 N 1016,5 42 40 0,0
14.07.2018 15:00:00 29,7 10,1 39,8 35,1 24,8 21,0 5 3 21 11 ENE 1016,8 25 55 0,0
14.07.2018 14:00:00 29,3 10,7 38,3 33,9 24,4 21,0 11 6 21 11 NNE 1017,4 22 59 0,0
14.07.2018 13:00:00 27,6 10,5 36,8 31,6 24,1 21,0 10 5 23 12 ENE 1018,1 31 60 0,0
14.07.2018 12:00:00 27,0 10,7 34,4 29,2 23,9 21,0 8 4 17 9 NNE 1018,5 27 60 0,0
14.07.2018 11:00:00 25,7 11,8 31,0 26,0 23,8 20,9 5 3 14 7 NNE 1019,0 28 56 0,0
14.07.2018 10:00:00 23,0 14,0 25,4 23,1 23,9 20,9 5 3 13 7 N 1019,2 33 9 0,0
14.07.2018 09:00:00 19,5 12,9 20,5 22,6 24,0 20,9 6 4 10 6 NNE 1019,3 26 0 0,0
14.07.2018 08:00:00 18,6 12,6 19,5 22,1 24,2 20,9 4 2 9 5 NNW 1019,1 30 0 0,0
14.07.2018 07:00:00 17,3 12,4 17,6 21,5 24,4 20,9 4 2 8 5 NW 1019,1 29 0 0,0
14.07.2018 06:00:00 16,3 12,5 14,8 21,6 24,6 20,9 6 3 9 5 NNW 1018,9 25 0 0,0
14.07.2018 05:00:00 16,4 12,3 13,4 22,3 24,9 20,9 3 2 11 6 NNW 1018,9 25 0 0,0
14.07.2018 04:00:00 17,7 12,5 16,0 22,9 25,1 20,9 6 3 11 6 N 1018,7 29 0 0,0
14.07.2018 03:00:00 18,7 12,3 18,1 23,2 25,3 20,9 4 2 14 7 NNE 1018,9 35 0 0,0
14.07.2018 02:00:00 17,6 12,5 14,4 23,6 25,6 20,9 5 3 8 4 NW 1018,9 34 0 0,0
14.07.2018 01:00:00 19,2 12,2 16,3 24,5 25,8 20,9 4 2 11 6 NE 1019,0 40 0 0,0
14.07.2018 00:00:00 19,4 12,2 16,7 25,3 26,0 20,9 4 2 7 4 N 1018,9 36 0 0,0
13.07.2018 23:00:00 20,2 11,6 16,6 26,6 26,2 21,0 4 2 8 5 N 1018,7 36 0 0,0
13.07.2018 22:00:00 24,1 11,9 21,9 28,2 26,3 21,0 6 3 18 10 NNE 1018,2 39 0 0,0
13.07.2018 21:00:00 25,6 11,5 25,2 30,1 26,3 21,0 13 7 26 14 NNE 1017,5 52 55 0,0
13.07.2018 20:00:00 27,0 11,6 28,5 32,0 26,2 21,0 18 10 28 15 N 1017,2 44 47 0,0
13.07.2018 19:00:00 28,8 8,3 32,6 34,1 26,0 21,0 15 8 21 11 NNW 1017,0 42 56 0,0
13.07.2018 18:00:00 29,5 9,6 36,2 35,0 25,6 21,0 6 4 22 12 NNW 1017,3 38 42 0,0
13.07.2018 17:00:00 28,5 10,1 35,4 35,9 25,2 21,0 13 7 22 12 N 1017,6 36 52 0,0
13.07.2018 16:00:00 28,7 10,6 37,2 35,8 24,7 21,0 10 5 22 12 NNW 1017,9 25 59 0,0
13.07.2018 15:00:00 28,1 10,7 37,3 34,6 24,2 21,0 11 6 48 26 WNW 1018,0 35 48 0,0
13.07.2018 14:00:00 27,9 11,0 38,2 33,5 23,7 21,0 8 4 21 11 ENE 1018,7 28 60 0,0
13.07.2018 13:00:00 26,9 10,9 35,2 31,4 23,3 21,0 9 5 22 12 NW 1019,1 21 56 0,0
13.07.2018 12:00:00 25,2 12,7 30,2 29,6 23,0 21,0 7 4 17 9 W 1019,3 34 55 0,0
13.07.2018 11:00:00 24,5 13,9 30,4 27,1 22,8 21,0 9 5 16 9 NNE 1019,5 27 60 0,0
13.07.2018 10:00:00 22,7 13,5 27,5 24,5 22,8 21,0 8 5 18 10 NNE 1019,8 22 60 0,0
13.07.2018 09:00:00 21,3 13,6 24,1 22,1 22,8 21,0 7 4 16 9 NNE 1019,7 31 60 0,0
13.07.2018 08:00:00 18,4 12,8 20,4 20,5 23,0 21,0 6 4 9 5 NNW 1019,6 19 60 0,0
13.07.2018 07:00:00 15,9 13,3 16,0 19,8 23,1 21,0 3 2 5 3 NW 1019,6 18 15 0,0
13.07.2018 06:00:00 13,8 12,2 12,9 19,7 23,3 21,0 3 2 5 3 NW 1019,7 19 0 0,0
13.07.2018 05:00:00 13,8 12,3 11,0 20,0 23,6 21,0 3 1 7 4 NE 1019,4 18 0 0,0
13.07.2018 04:00:00 14,1 11,8 11,7 20,4 23,8 21,0 3 2 6 3 NNW 1019,3 19 0 0,0
13.07.2018 03:00:00 15,0 12,7 11,7 20,9 24,0 21,0 4 2 8 5 NNW 1019,1 26 0 0,0
13.07.2018 02:00:00 15,6 12,1 12,5 21,6 24,2 21,0 5 3 9 5 NNW 1018,8 28 0 0,0
13.07.2018 01:00:00 16,7 11,7 14,0 22,4 24,4 21,0 5 3 11 6 NNW 1018,8 41 0 0,0
13.07.2018 00:00:00 18,6 12,1 16,5 23,0 24,6 21,0 6 3 15 8 NE 1018,7 48 0 0,0
12.07.2018 23:00:00 19,2 11,5 14,4 24,1 24,8 21,0 3 2 9 5 ENE 1018,4 51 0 0,0
12.07.2018 22:00:00 22,1 10,9 18,4 25,6 24,8 21,0 6 4 11 6 N 1017,9 70 8 0,0
12.07.2018 21:00:00 23,9 10,5 22,7 27,3 24,8 21,0 7 4 16 8 NNW 1017,2 70 60 0,0
12.07.2018 20:00:00 24,9 10,4 26,9 28,6 24,8 21,0 8 5 17 9 N 1017,0 59 60 0,0
12.07.2018 19:00:00 25,0 10,4 29,7 28,8 24,6 21,0 6 4 18 10 NNE 1016,8 56 21 0,0
12.07.2018 18:00:00 24,3 10,4 26,6 30,5 24,4 21,0 10 6 19 11 NNE 1017,0 60 31 0,0
12.07.2018 17:00:00 24,6 10,5 31,3 31,1 24,1 21,0 7 4 29 15 NNW 1017,2 39 41 0,0
12.07.2018 16:00:00 24,2 10,2 30,1 31,3 23,7 21,0 11 6 24 13 NNE 1017,4 49 35 0,0
12.07.2018 15:00:00 24,5 11,3 33,9 30,7 23,4 21,1 13 7 22 12 NNW 1017,5 23 48 0,0
12.07.2018 14:00:00 22,1 11,0 27,7 29,1 23,2 21,1 12 7 22 12 N 1017,8 59 33 0,0
12.07.2018 13:00:00 21,6 11,5 27,3 26,8 23,0 21,1 5 3 21 11 NW 1018,0 56 10 0,0
12.07.2018 12:00:00 21,3 11,5 27,8 25,9 22,8 21,1 9 5 22 12 NNW 1017,8 40 23 0,0
12.07.2018 11:00:00 20,5 12,3 26,4 24,2 22,8 21,1 11 6 20 11 NE 1017,9 32 26 0,0
12.07.2018 10:00:00 19,6 12,7 23,4 23,4 22,8 21,1 10 6 21 11 N 1017,8 29 14 0,0
12.07.2018 09:00:00 19,1 12,8 21,8 22,4 22,8 21,1 8 4 19 11 NNE 1017,5 24 56 0,0
12.07.2018 08:00:00 18,1 13,8 19,8 21,5 22,9 21,1 10 5 19 11 N 1017,0 14 35 0,0
12.07.2018 07:00:00 16,6 14,3 17,4 21,2 22,9 21,1 10 5 15 8 NNE 1016,7 12 0 0,0
12.07.2018 06:00:00 16,7 14,0 17,2 21,2 23,0 21,1 6 4 12 7 N 1016,5 13 0 0,0
12.07.2018 05:00:00 16,9 13,4 17,3 21,4 23,2 21,1 8 4 13 7 NNW 1016,4 20 0 0,0
12.07.2018 04:00:00 16,8 13,2 17,2 21,6 23,3 21,1 3 2 12 7 ENE 1016,2 16 0 0,0
12.07.2018 03:00:00 17,4 12,7 17,8 21,7 23,4 21,1 6 3 10 6 N 1016,3 28 0 0,0
12.07.2018 02:00:00 16,4 12,9 17,1 21,9 23,5 21,1 6 3 11 6 NE 1016,5 16 0 0,0
12.07.2018 01:00:00 17,7 11,8 17,9 22,2 23,6 21,1 11 6 23 12 NNW 1016,6 27 0 0,0
12.07.2018 00:00:00 19,7 9,7 18,8 22,6 23,7 21,1 6 3 11 6 NW 1016,5 34 0 0,0
11.07.2018 23:00:00 20,0 9,5 19,4 23,0 23,8 21,1 4 2 16 9 NW 1016,4 47 0 0,0
11.07.2018 22:00:00 19,4 10,1 18,8 23,7 23,8 21,1 0 0 7 4 N 1016,5 48 0 0,0
11.07.2018 21:00:00 19,8 10,1 20,6 24,6 23,9 21,1 5 3 8 5 E 1016,3 59 2 0,0
11.07.2018 20:00:00 20,6 9,5 23,0 24,7 23,9 21,1 3 2 11 6 SSW 1016,3 70 18 0,0
11.07.2018 19:00:00 19,9 9,2 20,9 25,0 23,8 21,1 7 4 19 10 N 1016,3 65 0 0,0
11.07.2018 18:00:00 20,6 9,5 23,0 25,8 23,7 21,1 11 6 17 9 NW 1016,3 64 0 0,0
11.07.2018 17:00:00 20,3 9,5 22,7 26,9 23,5 21,1 11 6 27 15 NNW 1016,3 70 2 0,0
11.07.2018 16:00:00 21,1 8,6 27,2 28,7 23,3 21,1 13 7 22 12 NW 1016,1 58 35 0,0
11.07.2018 15:00:00 20,9 8,3 30,5 26,4 23,1 21,1 10 6 20 11 W 1016,3 43 28 0,0
11.07.2018 14:00:00 18,2 9,6 22,0 25,1 23,0 21,1 14 8 23 12 NNW 1016,8 49 13 0,0
11.07.2018 13:00:00 18,4 9,5 22,8 24,2 22,9 21,1 12 6 27 14 NNW 1016,7 63 12 0,0

tt = Température de l'air
td = dewpoint
tt 5cm = Température de l'air 5cm
tt -5cm = Température de l'air -5cm
tt -20cm = Température de l'air -20cm
tt -100cm = Température de l'air -100cm
ff = Vitesse du vent
fx = gusts
dd = Direction du vent
ppp = reduced air pressure
vv = visibility
sd = Ensoleillement
rr = Quantités de précipitations

stations d'obs. à proximité